Tracking 28790 objects as of 19-Apr-2024
HD Live streaming from Space Station
objects crossing your sky now

SCOUT G-1 R/B

Track SCOUT G-1 R/B now!
10-day predictions


NORAD ID: 18363
Int'l Code: 1987-080C
Perigee: 1,023.7 km
Apogee: 1,179.4 km
Inclination: 90.4 °
Period: 107.1 minutes
Semi major axis: 7472 km
RCS: 0.8872 m2 (medium)
Launch date: September 16, 1987
Source: United States (US)
Launch site: AIR FORCE WESTERN TEST RANGE (AFWTR)

Note: This is a ROCKET BODY
Your satellite tracking list
Your tracking list is empty




NASA's NSSDC Master Catalog

Two Line Element Set (TLE):
1 18363U 87080C   24109.83638142  .00000162  00000-0  25796-3 0  9996
2 18363  90.3610  57.4097 0104186 187.7200 225.7011 13.43992446793810
Source of the keplerian elements: AFSPC